| time (UTC) | temp F | wind direction | speed MPH | gust MPH | rain 1hr in | rain 24hr in | rain mn in | humidity % | barometer mb |
| 20260509135503 | 46 | 325 | 2.0 | 5.0 | 0.00 | 0.00 | 0.00 | 47 | 1033.7 |
| 20260509135220 | 46 | 320 | 2.0 | 5.0 | 0.00 | 0.00 | 0.00 | 47 | 1033.7 |
| 20260509134503 | 46 | 320 | 2.0 | 5.0 | 0.00 | 0.00 | 0.00 | 48 | 1033.7 |
| 20260509134003 | 46 | 322 | 2.0 | 5.0 | 0.00 | 0.00 | 0.00 | 47 | 1033.7 |
| 20260509133503 | 47 | 323 | 3.0 | 9.0 | 0.00 | 0.00 | 0.00 | 47 | 1033.6 |
| 20260509133003 | 47 | 327 | 3.0 | 9.0 | 0.00 | 0.00 | 0.00 | 46 | 1033.5 |
| 20260509132503 | 47 | 320 | 3.0 | 9.0 | 0.00 | 0.00 | 0.00 | 46 | 1033.4 |
| 20260509132003 | 48 | 313 | 3.0 | 9.0 | 0.00 | 0.00 | 0.00 | 45 | 1033.5 |
| 20260509131503 | 48 | 316 | 3.0 | 9.0 | 0.00 | 0.00 | 0.00 | 45 | 1033.5 |
| 20260509131003 | 48 | 316 | 4.0 | 8.0 | 0.00 | 0.00 | 0.00 | 45 | 1033.3 |
| 20260509130503 | 48 | 319 | 5.0 | 11.0 | 0.00 | 0.00 | 0.00 | 46 | 1033.3 |
| 20260509130003 | 47 | 319 | 4.0 | 11.0 | 0.00 | 0.00 | 0.00 | 44 | 1033.3 |
| 20260509125503 | 47 | 313 | 3.0 | 8.0 | 0.00 | 0.00 | 0.00 | 45 | 1033.2 |
| 20260509125003 | 47 | 317 | 3.0 | 8.0 | 0.00 | 0.00 | 0.00 | 47 | 1033.1 |
| 20260509124503 | 46 | 319 | 4.0 | 9.0 | 0.00 | 0.00 | 0.00 | 46 | 1033.0 |
| 20260509124003 | 46 | 320 | 5.0 | 9.0 | 0.00 | 0.00 | 0.00 | 47 | 1032.9 |
| 20260509123503 | 46 | 321 | 5.0 | 10.0 | 0.00 | 0.00 | 0.00 | 48 | 1032.9 |
| 20260509123003 | 46 | 319 | 5.0 | 10.0 | 0.00 | 0.00 | 0.00 | 49 | 1032.9 |
| 20260509122503 | 45 | 319 | 4.0 | 8.0 | 0.00 | 0.00 | 0.00 | 50 | 1032.8 |
| 20260509122003 | 45 | 320 | 4.0 | 8.0 | 0.00 | 0.00 | 0.00 | 50 | 1032.8 |
| 20260509121503 | 45 | 322 | 4.0 | 8.0 | 0.00 | 0.00 | 0.00 | 50 | 1032.7 |
| 20260509121003 | 45 | 323 | 4.0 | 9.0 | 0.00 | 0.00 | 0.00 | 50 | 1032.6 |
| 20260509120717 | 45 | 321 | 4.0 | 9.0 | 0.00 | 0.00 | 0.00 | 50 | 1032.6 |
| 20260509120003 | 46 | 322 | 4.0 | 9.0 | 0.00 | 0.00 | 0.00 | 49 | 1032.5 |
| 20260509115718 | 46 | 320 | 5.0 | 11.0 | 0.00 | 0.00 | 0.00 | 48 | 1032.4 |
| 20260509115003 | 46 | 316 | 6.0 | 13.0 | 0.00 | 0.00 | 0.00 | 48 | 1032.4 |
| 20260509114503 | 45 | 319 | 5.0 | 12.0 | 0.00 | 0.00 | 0.00 | 48 | 1032.2 |
| 20260509114003 | 45 | 322 | 4.0 | 8.0 | 0.00 | 0.00 | 0.00 | 48 | 1032.1 |
| 20260509113720 | 45 | 323 | 4.0 | 8.0 | 0.00 | 0.00 | 0.00 | 49 | 1032.1 |
| 20260509113003 | 45 | 321 | 5.0 | 8.0 | 0.00 | 0.00 | 0.00 | 50 | 1032.1 |
| 20260509112503 | 45 | 321 | 5.0 | 11.0 | 0.00 | 0.00 | 0.00 | 51 | 1032.1 |
| 20260509112003 | 45 | 319 | 5.0 | 11.0 | 0.00 | 0.00 | 0.00 | 51 | 1032.1 |
| 20260509111717 | 44 | 320 | 5.0 | 11.0 | 0.00 | 0.00 | 0.00 | 51 | 1032.1 |
| 20260509111003 | 44 | 327 | 4.0 | 8.0 | 0.00 | 0.00 | 0.00 | 52 | 1032.1 |
| 20260509110503 | 44 | 325 | 3.0 | 8.0 | 0.00 | 0.00 | 0.00 | 52 | 1032.0 |
| 20260509110003 | 44 | 326 | 4.0 | 8.0 | 0.00 | 0.00 | 0.00 | 52 | 1032.1 |
| 20260509105503 | 44 | 324 | 4.0 | 7.0 | 0.00 | 0.00 | 0.00 | 53 | 1032.1 |
| 20260509105003 | 44 | 320 | 5.0 | 9.0 | 0.00 | 0.00 | 0.00 | 54 | 1032.1 |
| 20260509104503 | 42 | 323 | 4.0 | 9.0 | 0.00 | 0.00 | 0.00 | 58 | 1032.1 |
| 20260509104003 | 40 | 328 | 2.0 | 6.0 | 0.00 | 0.00 | 0.00 | 63 | 1032.1 |
| 20260509103503 | 38 | 328 | 1.0 | 3.0 | 0.00 | 0.00 | 0.00 | 67 | 1032.1 |
| 20260509103003 | 38 | 332 | 1.0 | 3.0 | 0.00 | 0.00 | 0.00 | 69 | 1031.9 |
| 20260509102503 | 38 | 352 | 0.0 | 2.0 | 0.00 | 0.00 | 0.00 | 71 | 1032.0 |
| 20260509102219 | 39 | 360 | 0.0 | 2.0 | 0.00 | 0.00 | 0.00 | 70 | 1032.0 |
| 20260509101503 | 39 | 358 | 0.0 | 2.0 | 0.00 | 0.00 | 0.00 | 69 | 1032.0 |
| 20260509101003 | 40 | 348 | 1.0 | 2.0 | 0.00 | 0.00 | 0.00 | 68 | 1032.0 |
| 20260509100503 | 40 | 346 | 0.0 | 2.0 | 0.00 | 0.00 | 0.00 | 69 | 1032.0 |
| 20260509100004 | 40 | 344 | 0.0 | 1.0 | 0.00 | 0.00 | 0.00 | 69 | 1031.9 |
| 20260509095503 | 40 | 344 | 0.0 | 1.0 | 0.00 | 0.00 | 0.00 | 71 | 1031.9 |
| 20260509095217 | 40 | 344 | 0.0 | 1.0 | 0.00 | 0.00 | 0.00 | 71 | 1031.9 |
| 20260509094503 | 39 | 347 | 1.0 | 2.0 | 0.00 | 0.00 | 0.00 | 71 | 1031.8 |
| 20260509094003 | 39 | 358 | 1.0 | 2.0 | 0.00 | 0.00 | 0.00 | 71 | 1031.9 |
| 20260509093721 | 39 | 14 | 1.0 | 2.0 | 0.00 | 0.00 | 0.00 | 71 | 1031.8 |
| 20260509093003 | 39 | 25 | 0.0 | 2.0 | 0.00 | 0.00 | 0.00 | 71 | 1031.7 |
| 20260509092503 | 39 | 21 | 0.0 | 1.0 | 0.00 | 0.00 | 0.00 | 71 | 1031.7 |
| 20260509092003 | 39 | 337 | 0.0 | 2.0 | 0.00 | 0.00 | 0.00 | 72 | 1031.8 |
| 20260509091503 | 38 | 326 | 0.0 | 2.0 | 0.00 | 0.00 | 0.00 | 72 | 1031.7 |
| 20260509091221 | 38 | 323 | 0.0 | 1.0 | 0.00 | 0.00 | 0.00 | 72 | 1031.8 |
| 20260509090503 | 39 | 322 | 0.0 | 3.0 | 0.00 | 0.00 | 0.00 | 73 | 1031.8 |
| 20260509090003 | 39 | 321 | 0.0 | 3.0 | 0.00 | 0.00 | 0.00 | 72 | 1031.8 |
| 20260509085503 | 39 | 321 | 0.0 | 1.0 | 0.00 | 0.00 | 0.00 | 72 | 1031.9 |
| 20260509085003 | 39 | 331 | 0.0 | 3.0 | 0.00 | 0.00 | 0.00 | 72 | 1032.0 |
| 20260509084721 | 39 | 331 | 1.0 | 3.0 | 0.00 | 0.00 | 0.00 | 71 | 1032.1 |
| 20260509084003 | 39 | 333 | 0.0 | 1.0 | 0.00 | 0.00 | 0.00 | 72 | 1032.1 |
| 20260509083503 | 39 | 329 | 0.0 | 1.0 | 0.00 | 0.00 | 0.00 | 72 | 1032.1 |
| 20260509083003 | 39 | 327 | 0.0 | 1.0 | 0.00 | 0.00 | 0.00 | 72 | 1032.2 |
| 20260509082503 | 39 | 327 | 0.0 | 1.0 | 0.00 | 0.00 | 0.00 | 73 | 1032.1 |
| 20260509082221 | 39 | 327 | 0.0 | 1.0 | 0.00 | 0.00 | 0.00 | 73 | 1032.2 |
| 20260509081719 | 38 | 327 | 0.0 | 1.0 | 0.00 | 0.00 | 0.00 | 74 | 1032.1 |
| 20260509081217 | 39 | 327 | 0.0 | 1.0 | 0.00 | 0.00 | 0.00 | 73 | 1032.2 |
| 20260509080503 | 39 | 324 | 0.0 | 3.0 | 0.00 | 0.00 | 0.00 | 73 | 1032.3 |
| 20260509080003 | 39 | 323 | 1.0 | 3.0 | 0.00 | 0.00 | 0.00 | 72 | 1032.4 |
| 20260509075503 | 39 | 326 | 1.0 | 4.0 | 0.00 | 0.00 | 0.00 | 72 | 1032.5 |
| 20260509075219 | 39 | 342 | 1.0 | 4.0 | 0.00 | 0.00 | 0.00 | 72 | 1032.5 |
| 20260509074503 | 40 | 2 | 1.0 | 3.0 | 0.00 | 0.00 | 0.00 | 71 | 1032.5 |
| 20260509074004 | 40 | 319 | 0.0 | 1.0 | 0.00 | 0.00 | 0.00 | 71 | 1032.6 |
| 20260509073503 | 40 | 319 | 0.0 | 1.0 | 0.00 | 0.00 | 0.00 | 70 | 1032.8 |
| 20260509073003 | 40 | 319 | 0.0 | 1.0 | 0.00 | 0.00 | 0.00 | 70 | 1032.8 |
| 20260509072503 | 40 | 319 | 0.0 | 1.0 | 0.00 | 0.00 | 0.00 | 70 | 1032.9 |
| 20260509072003 | 41 | 320 | 0.0 | 1.0 | 0.00 | 0.00 | 0.00 | 69 | 1032.9 |
| 20260509071503 | 41 | 320 | 0.0 | 1.0 | 0.00 | 0.00 | 0.00 | 69 | 1032.9 |
| 20260509071003 | 41 | 320 | 0.0 | 1.0 | 0.00 | 0.00 | 0.00 | 68 | 1033.1 |
| 20260509070503 | 41 | 320 | 0.0 | 2.0 | 0.00 | 0.00 | 0.00 | 68 | 1033.2 |
| 20260509070003 | 42 | 320 | 0.0 | 2.0 | 0.00 | 0.00 | 0.00 | 68 | 1033.3 |
| 20260509065503 | 42 | 320 | 0.0 | 2.0 | 0.00 | 0.00 | 0.00 | 67 | 1033.4 |
| 20260509065003 | 42 | 323 | 1.0 | 3.0 | 0.00 | 0.00 | 0.00 | 67 | 1033.5 |
| 20260509064503 | 42 | 326 | 1.0 | 3.0 | 0.00 | 0.00 | 0.00 | 67 | 1033.5 |
| 20260509064003 | 42 | 326 | 1.0 | 4.0 | 0.00 | 0.00 | 0.00 | 66 | 1033.5 |
| 20260509063503 | 42 | 333 | 1.0 | 4.0 | 0.00 | 0.00 | 0.00 | 66 | 1033.5 |
| 20260509063003 | 42 | 341 | 1.0 | 4.0 | 0.00 | 0.00 | 0.00 | 66 | 1033.6 |
| 20260509062503 | 42 | 343 | 1.0 | 3.0 | 0.00 | 0.00 | 0.00 | 66 | 1033.6 |
| 20260509062217 | 42 | 332 | 0.0 | 2.0 | 0.00 | 0.00 | 0.00 | 66 | 1033.6 |
| 20260509061504 | 42 | 328 | 1.0 | 3.0 | 0.00 | 0.00 | 0.00 | 65 | 1033.7 |
| 20260509061218 | 43 | 328 | 1.0 | 3.0 | 0.00 | 0.00 | 0.00 | 65 | 1033.8 |
| 20260509060503 | 43 | 329 | 2.0 | 8.0 | 0.00 | 0.00 | 0.00 | 65 | 1033.9 |
| 20260509060004 | 43 | 323 | 1.0 | 8.0 | 0.00 | 0.00 | 0.00 | 65 | 1033.9 |
| 20260509055503 | 43 | 319 | 1.0 | 3.0 | 0.00 | 0.00 | 0.00 | 65 | 1033.9 |
| 20260509055003 | 43 | 329 | 1.0 | 4.0 | 0.00 | 0.00 | 0.00 | 65 | 1034.0 |
| 20260509054503 | 43 | 328 | 1.0 | 4.0 | 0.00 | 0.00 | 0.00 | 65 | 1033.9 |
| 20260509054003 | 43 | 326 | 1.0 | 4.0 | 0.00 | 0.00 | 0.00 | 65 | 1034.0 |
| 20260509053503 | 43 | 325 | 1.0 | 4.0 | 0.00 | 0.00 | 0.00 | 65 | 1034.0 |
| 20260509053003 | 43 | 325 | 2.0 | 4.0 | 0.00 | 0.00 | 0.00 | 65 | 1034.0 |
| 20260509052503 | 43 | 325 | 1.0 | 3.0 | 0.00 | 0.00 | 0.00 | 65 | 1034.1 |
| 20260509052004 | 43 | 322 | 1.0 | 2.0 | 0.00 | 0.00 | 0.00 | 65 | 1034.1 |
| 20260509051721 | 43 | 321 | 1.0 | 2.0 | 0.00 | 0.00 | 0.00 | 64 | 1034.1 |
| 20260509051003 | 44 | 322 | 0.0 | 2.0 | 0.00 | 0.00 | 0.00 | 64 | 1034.1 |
| 20260509050503 | 44 | 331 | 0.0 | 2.0 | 0.00 | 0.00 | 0.00 | 64 | 1034.1 |
| 20260509050219 | 44 | 337 | 0.0 | 3.0 | 0.00 | 0.00 | 0.00 | 63 | 1034.1 |
| 20260509045503 | 44 | 346 | 0.0 | 3.0 | 0.00 | 0.00 | 0.00 | 62 | 1034.1 |
| 20260509045003 | 44 | 347 | 0.0 | 2.0 | 0.00 | 0.00 | 0.00 | 63 | 1034.1 |
| 20260509044503 | 44 | 335 | 1.0 | 5.0 | 0.00 | 0.00 | 0.00 | 63 | 1034.0 |
| 20260509044003 | 44 | 333 | 2.0 | 5.0 | 0.00 | 0.00 | 0.00 | 63 | 1034.1 |
| 20260509043503 | 44 | 340 | 1.0 | 5.0 | 0.00 | 0.00 | 0.00 | 63 | 1034.2 |
| 20260509043003 | 44 | 342 | 1.0 | 3.0 | 0.00 | 0.00 | 0.00 | 64 | 1034.1 |
| 20260509042720 | 44 | 333 | 1.0 | 3.0 | 0.00 | 0.00 | 0.00 | 64 | 1034.3 |
| 20260509042004 | 44 | 342 | 0.0 | 1.0 | 0.00 | 0.00 | 0.00 | 63 | 1034.2 |
| 20260509041503 | 44 | 342 | 0.0 | 2.0 | 0.00 | 0.00 | 0.00 | 63 | 1034.2 |
| 20260509041003 | 45 | 340 | 0.0 | 2.0 | 0.00 | 0.00 | 0.00 | 62 | 1034.1 |
| 20260509040503 | 45 | 338 | 0.0 | 1.0 | 0.00 | 0.00 | 0.00 | 63 | 1034.1 |
| 20260509040003 | 45 | 340 | 0.0 | 2.0 | 0.00 | 0.00 | 0.00 | 63 | 1034.2 |
| 20260509035718 | 45 | 346 | 0.0 | 2.0 | 0.00 | 0.00 | 0.00 | 63 | 1034.2 |
| 20260509035003 | 45 | 77 | 0.0 | 2.0 | 0.00 | 0.00 | 0.00 | 63 | 1034.1 |
| 20260509034503 | 45 | 46 | 1.0 | 2.0 | 0.00 | 0.00 | 0.00 | 63 | 1034.0 |
| 20260509034003 | 45 | 18 | 0.0 | 2.0 | 0.00 | 0.00 | 0.00 | 64 | 1034.0 |
| 20260509033720 | 45 | 16 | 0.0 | 2.0 | 0.00 | 0.00 | 0.00 | 64 | 1034.0 |
| 20260509033003 | 45 | 35 | 0.0 | 1.0 | 0.00 | 0.00 | 0.00 | 64 | 1033.9 |
| 20260509032721 | 45 | 34 | 0.0 | 1.0 | 0.00 | 0.00 | 0.00 | 64 | 1033.9 |
| 20260509032003 | 45 | 32 | 0.0 | 1.0 | 0.00 | 0.00 | 0.00 | 65 | 1033.9 |
| 20260509031504 | 45 | 32 | 0.0 | 2.0 | 0.00 | 0.00 | 0.00 | 64 | 1033.8 |
| 20260509031003 | 46 | 31 | 0.0 | 2.0 | 0.00 | 0.00 | 0.00 | 64 | 1033.8 |
| 20260509030503 | 46 | 27 | 0.0 | 1.0 | 0.00 | 0.00 | 0.00 | 64 | 1033.7 |
| 20260509030221 | 46 | 31 | 0.0 | 1.0 | 0.00 | 0.00 | 0.00 | 64 | 1033.7 |
| 20260509025503 | 46 | 53 | 0.0 | 1.0 | 0.00 | 0.00 | 0.00 | 64 | 1033.5 |
| 20260509025003 | 46 | 39 | 0.0 | 2.0 | 0.00 | 0.00 | 0.00 | 64 | 1033.4 |
| 20260509024720 | 46 | 35 | 0.0 | 2.0 | 0.00 | 0.00 | 0.00 | 63 | 1033.4 |
| 20260509024003 | 47 | 355 | 0.0 | 1.0 | 0.00 | 0.00 | 0.00 | 64 | 1033.3 |
| 20260509023503 | 47 | 355 | 0.0 | 1.0 | 0.00 | 0.00 | 0.00 | 62 | 1033.3 |
| 20260509023003 | 47 | 354 | 0.0 | 2.0 | 0.00 | 0.00 | 0.00 | 62 | 1033.3 |
| 20260509022503 | 48 | 353 | 0.0 | 2.0 | 0.00 | 0.00 | 0.00 | 62 | 1033.1 |
| 20260509022003 | 48 | 350 | 0.0 | 1.0 | 0.00 | 0.00 | 0.00 | 62 | 1033.0 |
| 20260509021717 | 48 | 349 | 0.0 | 1.0 | 0.00 | 0.00 | 0.00 | 61 | 1033.0 |
| 20260509021003 | 49 | 344 | 0.0 | 1.0 | 0.00 | 0.00 | 0.00 | 60 | 1032.8 |
| 20260509020718 | 49 | 336 | 0.0 | 1.0 | 0.00 | 0.00 | 0.00 | 60 | 1032.8 |
| 20260509020004 | 49 | 339 | 1.0 | 3.0 | 0.00 | 0.00 | 0.00 | 60 | 1032.7 |
| 20260509015503 | 50 | 15 | 0.0 | 3.0 | 0.00 | 0.00 | 0.00 | 59 | 1032.6 |
| 20260509015003 | 50 | 89 | 0.0 | 1.0 | 0.00 | 0.00 | 0.00 | 59 | 1032.5 |
| 20260509014503 | 50 | 89 | 0.0 | 2.0 | 0.00 | 0.00 | 0.00 | 58 | 1032.5 |
| 20260509014003 | 51 | 89 | 0.0 | 2.0 | 0.00 | 0.00 | 0.00 | 57 | 1032.5 |
| 20260509013503 | 51 | 89 | 0.0 | 2.0 | 0.00 | 0.00 | 0.00 | 57 | 1032.5 |
| 20260509013003 | 52 | 89 | 0.0 | 2.0 | 0.00 | 0.00 | 0.00 | 56 | 1032.4 |
| 20260509012503 | 52 | 78 | 1.0 | 3.0 | 0.00 | 0.00 | 0.00 | 56 | 1032.3 |
| 20260509012003 | 52 | 86 | 1.0 | 4.0 | 0.00 | 0.00 | 0.00 | 54 | 1032.3 |
| 20260509011503 | 52 | 95 | 1.0 | 4.0 | 0.00 | 0.00 | 0.00 | 53 | 1032.3 |
| 20260509011221 | 53 | 95 | 1.0 | 4.0 | 0.00 | 0.00 | 0.00 | 53 | 1032.2 |
| 20260509010719 | 53 | 88 | 2.0 | 8.0 | 0.00 | 0.00 | 0.00 | 53 | 1032.2 |
| 20260509010003 | 54 | 83 | 1.0 | 8.0 | 0.00 | 0.00 | 0.00 | 51 | 1032.1 |
| 20260509005503 | 54 | 63 | 1.0 | 6.0 | 0.00 | 0.00 | 0.00 | 52 | 1032.1 |
| 20260509005003 | 54 | 88 | 1.0 | 6.0 | 0.00 | 0.00 | 0.00 | 51 | 1032.0 |
| 20260509004503 | 54 | 93 | 2.0 | 4.0 | 0.00 | 0.00 | 0.00 | 51 | 1032.0 |
| 20260509004003 | 55 | 84 | 2.0 | 8.0 | 0.00 | 0.00 | 0.00 | 50 | 1031.9 |
| 20260509003503 | 56 | 90 | 3.0 | 8.0 | 0.00 | 0.00 | 0.00 | 48 | 1031.9 |
| 20260509003003 | 56 | 101 | 2.0 | 6.0 | 0.00 | 0.00 | 0.00 | 48 | 1031.9 |
| 20260509002503 | 57 | 105 | 2.0 | 6.0 | 0.00 | 0.00 | 0.00 | 48 | 1031.9 |
| 20260509002221 | 57 | 100 | 3.0 | 6.0 | 0.00 | 0.00 | 0.00 | 47 | 1031.8 |
| 20260509001503 | 56 | 92 | 3.0 | 7.0 | 0.00 | 0.00 | 0.00 | 48 | 1031.7 |
| 20260509001003 | 56 | 92 | 2.0 | 4.0 | 0.00 | 0.00 | 0.00 | 49 | 1031.7 |
| 20260509000503 | 56 | 99 | 3.0 | 6.0 | 0.00 | 0.00 | 0.00 | 49 | 1031.5 |
| 20260509000003 | 56 | 98 | 2.0 | 6.0 | 0.00 | 0.00 | 0.00 | 49 | 1031.5 |
| 20260508235503 | 56 | 82 | 2.0 | 4.0 | 0.00 | 0.00 | 0.00 | 48 | 1031.5 |
| 20260508235003 | 56 | 90 | 2.0 | 6.0 | 0.00 | 0.00 | 0.00 | 48 | 1031.4 |
| 20260508234503 | 56 | 109 | 2.0 | 9.0 | 0.00 | 0.00 | 0.00 | 47 | 1031.4 |
| 20260508234219 | 56 | 112 | 3.0 | 11.0 | 0.00 | 0.00 | 0.00 | 48 | 1031.3 |
| 20260508233718 | 57 | 109 | 4.0 | 11.0 | 0.00 | 0.00 | 0.00 | 48 | 1031.1 |
| 20260508233003 | 57 | 101 | 4.0 | 8.0 | 0.00 | 0.00 | 0.00 | 45 | 1031.2 |
| 20260508232503 | 58 | 105 | 3.0 | 8.0 | 0.00 | 0.00 | 0.00 | 43 | 1031.3 |
| 20260508232217 | 59 | 107 | 3.0 | 8.0 | 0.00 | 0.00 | 0.00 | 44 | 1031.3 |
| 20260508231719 | 59 | 109 | 3.0 | 7.0 | 0.00 | 0.00 | 0.00 | 44 | 1031.0 |
| 20260508231003 | 60 | 98 | 3.0 | 9.0 | 0.00 | 0.00 | 0.00 | 43 | 1031.0 |
| 20260508230503 | 61 | 97 | 3.0 | 9.0 | 0.00 | 0.00 | 0.00 | 40 | 1031.0 |
| 20260508230218 | 61 | 97 | 3.0 | 9.0 | 0.00 | 0.00 | 0.00 | 39 | 1031.0 |
| 20260508225503 | 61 | 100 | 4.0 | 10.0 | 0.00 | 0.00 | 0.00 | 41 | 1031.1 |
| 20260508225003 | 62 | 99 | 5.0 | 13.0 | 0.00 | 0.00 | 0.00 | 39 | 1031.0 |
| 20260508224503 | 63 | 98 | 6.0 | 13.0 | 0.00 | 0.00 | 0.00 | 38 | 1030.9 |
| 20260508224003 | 63 | 100 | 5.0 | 11.0 | 0.00 | 0.00 | 0.00 | 38 | 1030.9 |
| 20260508223503 | 62 | 108 | 5.0 | 12.0 | 0.00 | 0.00 | 0.00 | 35 | 1031.0 |
| 20260508223003 | 63 | 109 | 5.0 | 12.0 | 0.00 | 0.00 | 0.00 | 35 | 1030.9 |
| 20260508222503 | 64 | 96 | 3.0 | 8.0 | 0.00 | 0.00 | 0.00 | 35 | 1031.0 |
| 20260508222003 | 63 | 93 | 4.0 | 11.0 | 0.00 | 0.00 | 0.00 | 34 | 1031.2 |
| 20260508221503 | 63 | 93 | 4.0 | 11.0 | 0.00 | 0.00 | 0.00 | 34 | 1031.0 |
| 20260508221003 | 64 | 88 | 3.0 | 10.0 | 0.00 | 0.00 | 0.00 | 33 | 1031.3 |
| 20260508220503 | 64 | 112 | 5.0 | 13.0 | 0.00 | 0.00 | 0.00 | 23 | 1031.1 |
| 20260508220219 | 64 | 124 | 5.0 | 13.0 | 0.00 | 0.00 | 0.00 | 24 | 1031.1 |
| 20260508215717 | 65 | 186 | 4.0 | 13.0 | 0.00 | 0.00 | 0.00 | 24 | 1030.9 |
| 20260508215003 | 64 | 249 | 5.0 | 12.0 | 0.00 | 0.00 | 0.00 | 25 | 1031.1 |
| 20260508214503 | 64 | 256 | 5.0 | 12.0 | 0.00 | 0.00 | 0.00 | 24 | 1031.1 |
| 20260508214003 | 64 | 247 | 5.0 | 11.0 | 0.00 | 0.00 | 0.00 | 24 | 1031.1 |
| 20260508213719 | 64 | 257 | 6.0 | 11.0 | 0.00 | 0.00 | 0.00 | 25 | 1031.3 |
| 20260508213003 | 65 | 210 | 4.0 | 11.0 | 0.00 | 0.00 | 0.00 | 25 | 1031.3 |
| 20260508212503 | 65 | 180 | 4.0 | 10.0 | 0.00 | 0.00 | 0.00 | 26 | 1031.3 |
| 20260508212003 | 64 | 203 | 5.0 | 10.0 | 0.00 | 0.00 | 0.00 | 27 | 1031.3 |
| 20260508211503 | 63 | 245 | 4.0 | 10.0 | 0.00 | 0.00 | 0.00 | 27 | 1031.4 |
| 20260508211003 | 62 | 246 | 4.0 | 10.0 | 0.00 | 0.00 | 0.00 | 27 | 1031.6 |
| 20260508210503 | 63 | 184 | 5.0 | 16.0 | 0.00 | 0.00 | 0.00 | 26 | 1031.6 |
| 20260508210003 | 63 | 191 | 5.0 | 16.0 | 0.00 | 0.00 | 0.00 | 27 | 1031.5 |
| 20260508205717 | 63 | 278 | 4.0 | 14.0 | 0.00 | 0.00 | 0.00 | 29 | 1031.6 |
| 20260508205220 | 62 | 305 | 4.0 | 13.0 | 0.00 | 0.00 | 0.00 | 27 | 1031.6 |
| 20260508204503 | 61 | 298 | 6.0 | 18.0 | 0.00 | 0.00 | 0.00 | 26 | 1031.8 |
| 20260508204222 | 62 | 294 | 6.0 | 18.0 | 0.00 | 0.00 | 0.00 | 26 | 1031.8 |
| 20260508203720 | 62 | 277 | 6.0 | 11.0 | 0.00 | 0.00 | 0.00 | 28 | 1031.8 |
| 20260508203003 | 61 | 264 | 5.0 | 13.0 | 0.00 | 0.00 | 0.00 | 28 | 1031.8 |
| 20260508202503 | 61 | 262 | 5.0 | 13.0 | 0.00 | 0.00 | 0.00 | 27 | 1031.9 |
| 20260508202003 | 61 | 263 | 7.0 | 13.0 | 0.00 | 0.00 | 0.00 | 28 | 1031.9 |
| 20260508201503 | 61 | 269 | 6.0 | 16.0 | 0.00 | 0.00 | 0.00 | 26 | 1031.9 |
| 20260508201003 | 60 | 262 | 6.0 | 16.0 | 0.00 | 0.00 | 0.00 | 26 | 1031.8 |
| 20260508200503 | 61 | 253 | 6.0 | 13.0 | 0.00 | 0.00 | 0.00 | 27 | 1032.1 |
| 20260508200003 | 61 | 259 | 6.0 | 15.0 | 0.00 | 0.00 | 0.00 | 26 | 1032.1 |
| 20260508195503 | 60 | 269 | 6.0 | 15.0 | 0.00 | 0.00 | 0.00 | 27 | 1032.2 |
| 20260508195003 | 60 | 263 | 6.0 | 15.0 | 0.00 | 0.00 | 0.00 | 27 | 1032.1 |
| 20260508194504 | 61 | 270 | 6.0 | 15.0 | 0.00 | 0.00 | 0.00 | 26 | 1032.1 |
| 20260508194003 | 61 | 291 | 4.0 | 12.0 | 0.00 | 0.00 | 0.00 | 25 | 1032.2 |
| 20260508193503 | 61 | 292 | 4.0 | 11.0 | 0.00 | 0.00 | 0.00 | 29 | 1032.0 |
| 20260508193003 | 60 | 260 | 5.0 | 11.0 | 0.00 | 0.00 | 0.00 | 30 | 1032.1 |
| 20260508192503 | 60 | 253 | 5.0 | 12.0 | 0.00 | 0.00 | 0.00 | 28 | 1032.2 |
| 20260508192003 | 59 | 263 | 5.0 | 12.0 | 0.00 | 0.00 | 0.00 | 28 | 1032.2 |
| 20260508191717 | 59 | 250 | 5.0 | 10.0 | 0.00 | 0.00 | 0.00 | 28 | 1032.3 |
| 20260508191221 | 59 | 253 | 5.0 | 10.0 | 0.00 | 0.00 | 0.00 | 29 | 1032.2 |
| 20260508190718 | 59 | 262 | 5.0 | 11.0 | 0.00 | 0.00 | 0.00 | 28 | 1032.2 |
| 20260508190003 | 59 | 296 | 6.0 | 11.0 | 0.00 | 0.00 | 0.00 | 28 | 1032.4 |
| 20260508185503 | 59 | 303 | 7.0 | 14.0 | 0.00 | 0.00 | 0.00 | 30 | 1032.3 |
| 20260508185217 | 58 | 299 | 7.0 | 14.0 | 0.00 | 0.00 | 0.00 | 29 | 1032.3 |
| 20260508184504 | 58 | 282 | 6.0 | 12.0 | 0.00 | 0.00 | 0.00 | 28 | 1032.5 |
| 20260508184003 | 58 | 290 | 5.0 | 10.0 | 0.00 | 0.00 | 0.00 | 28 | 1032.5 |
| 20260508183721 | 58 | 303 | 5.0 | 13.0 | 0.00 | 0.00 | 0.00 | 28 | 1032.6 |
| 20260508183003 | 58 | 300 | 4.0 | 13.0 | 0.00 | 0.00 | 0.00 | 28 | 1032.7 |
| 20260508182503 | 58 | 304 | 5.0 | 13.0 | 0.00 | 0.00 | 0.00 | 33 | 1032.7 |
| 20260508182004 | 57 | 291 | 6.0 | 13.0 | 0.00 | 0.00 | 0.00 | 30 | 1032.8 |
| 20260508181503 | 57 | 272 | 6.0 | 13.0 | 0.00 | 0.00 | 0.00 | 31 | 1032.9 |
| 20260508181220 | 56 | 265 | 6.0 | 13.0 | 0.00 | 0.00 | 0.00 | 30 | 1033.0 |
| 20260508180718 | 57 | 274 | 5.0 | 13.0 | 0.00 | 0.00 | 0.00 | 29 | 1033.0 |
| 20260508180003 | 56 | 286 | 4.0 | 11.0 | 0.00 | 0.00 | 0.00 | 30 | 1033.0 |
| 20260508175503 | 56 | 297 | 4.0 | 11.0 | 0.00 | 0.00 | 0.00 | 31 | 1033.2 |
| 20260508175003 | 56 | 259 | 5.0 | 18.0 | 0.00 | 0.00 | 0.00 | 31 | 1033.1 |
| 20260508174720 | 56 | 269 | 5.0 | 18.0 | 0.00 | 0.00 | 0.00 | 34 | 1033.2 |
| 20260508174003 | 55 | 286 | 6.0 | 14.0 | 0.00 | 0.00 | 0.00 | 31 | 1033.3 |
| 20260508173503 | 55 | 263 | 5.0 | 12.0 | 0.00 | 0.00 | 0.00 | 31 | 1033.3 |
| 20260508173003 | 55 | 264 | 4.0 | 10.0 | 0.00 | 0.00 | 0.00 | 32 | 1033.3 |
| 20260508172503 | 55 | 262 | 3.0 | 9.0 | 0.00 | 0.00 | 0.00 | 33 | 1033.4 |
| 20260508172003 | 54 | 285 | 4.0 | 11.0 | 0.00 | 0.00 | 0.00 | 36 | 1033.4 |
| 20260508171503 | 54 | 299 | 5.0 | 13.0 | 0.00 | 0.00 | 0.00 | 35 | 1033.4 |
| 20260508171004 | 54 | 293 | 4.0 | 13.0 | 0.00 | 0.00 | 0.00 | 36 | 1033.3 |
| 20260508170719 | 54 | 219 | 2.0 | 7.0 | 0.00 | 0.00 | 0.00 | 34 | 1033.5 |
| 20260508170003 | 53 | 261 | 5.0 | 12.0 | 0.00 | 0.00 | 0.00 | 37 | 1033.5 |
| 20260508165503 | 54 | 263 | 5.0 | 12.0 | 0.00 | 0.01 | 0.00 | 36 | 1033.4 |
| 20260508165004 | 54 | 264 | 4.0 | 11.0 | 0.00 | 0.01 | 0.00 | 38 | 1033.4 |
| 20260508164503 | 53 | 264 | 4.0 | 11.0 | 0.00 | 0.01 | 0.00 | 38 | 1033.4 |
| 20260508164003 | 53 | 282 | 4.0 | 11.0 | 0.00 | 0.01 | 0.00 | 37 | 1033.6 |
| 20260508163503 | 52 | 289 | 4.0 | 11.0 | 0.00 | 0.01 | 0.00 | 39 | 1033.6 |
| 20260508163003 | 52 | 288 | 4.0 | 13.0 | 0.00 | 0.01 | 0.00 | 37 | 1033.7 |
| 20260508162718 | 52 | 287 | 4.0 | 13.0 | 0.00 | 0.01 | 0.00 | 37 | 1033.7 |
| 20260508162003 | 52 | 253 | 4.0 | 9.0 | 0.00 | 0.02 | 0.00 | 39 | 1033.7 |
| 20260508161719 | 52 | 245 | 3.0 | 9.0 | 0.00 | 0.02 | 0.00 | 38 | 1033.7 |
| 20260508161003 | 52 | 250 | 3.0 | 8.0 | 0.00 | 0.03 | 0.00 | 38 | 1033.7 |
| 20260508160503 | 51 | 254 | 3.0 | 8.0 | 0.00 | 0.03 | 0.00 | 39 | 1033.7 |
| 20260508160003 | 51 | 249 | 3.0 | 9.0 | 0.00 | 0.03 | 0.00 | 39 | 1033.8 |
| 20260508155503 | 51 | 234 | 3.0 | 9.0 | 0.00 | 0.04 | 0.00 | 38 | 1033.7 |
| 20260508155003 | 51 | 218 | 3.0 | 8.0 | 0.00 | 0.04 | 0.00 | 39 | 1033.7 |
| 20260508154503 | 51 | 218 | 2.0 | 6.0 | 0.00 | 0.04 | 0.00 | 39 | 1033.7 |
| 20260508154003 | 51 | 261 | 2.0 | 6.0 | 0.00 | 0.04 | 0.00 | 42 | 1033.6 |
| 20260508153503 | 50 | 276 | 3.0 | 7.0 | 0.00 | 0.04 | 0.00 | 39 | 1033.6 |
| 20260508153003 | 50 | 281 | 4.0 | 8.0 | 0.00 | 0.04 | 0.00 | 40 | 1033.7 |
| 20260508152503 | 50 | 301 | 4.0 | 10.0 | 0.00 | 0.04 | 0.00 | 39 | 1033.7 |
| 20260508152003 | 50 | 303 | 3.0 | 10.0 | 0.00 | 0.04 | 0.00 | 41 | 1033.5 |
| 20260508151503 | 50 | 304 | 3.0 | 9.0 | 0.00 | 0.04 | 0.00 | 41 | 1033.6 |
| 20260508151003 | 49 | 290 | 3.0 | 9.0 | 0.00 | 0.04 | 0.00 | 40 | 1033.6 |
| 20260508150503 | 49 | 257 | 3.0 | 9.0 | 0.00 | 0.04 | 0.00 | 42 | 1033.5 |
| 20260508150004 | 49 | 189 | 2.0 | 5.0 | 0.00 | 0.04 | 0.00 | 43 | 1033.5 |
| 20260508145503 | 48 | 155 | 2.0 | 6.0 | 0.00 | 0.04 | 0.00 | 44 | 1033.5 |
| 20260508145003 | 48 | 278 | 3.0 | 9.0 | 0.00 | 0.04 | 0.00 | 43 | 1033.5 |
| 20260508144503 | 48 | 299 | 3.0 | 9.0 | 0.00 | 0.04 | 0.00 | 43 | 1033.5 |
| 20260508144003 | 48 | 16 | 2.0 | 6.0 | 0.00 | 0.04 | 0.00 | 43 | 1033.3 |
| 20260508143503 | 48 | 64 | 1.0 | 4.0 | 0.00 | 0.04 | 0.00 | 44 | 1033.3 |
| 20260508143003 | 47 | 343 | 1.0 | 2.0 | 0.00 | 0.04 | 0.00 | 44 | 1033.3 |
| 20260508142503 | 47 | 316 | 1.0 | 3.0 | 0.00 | 0.04 | 0.00 | 45 | 1033.3 |
| 20260508142003 | 47 | 321 | 1.0 | 3.0 | 0.00 | 0.04 | 0.00 | 46 | 1033.3 |
| 20260508141503 | 47 | 8 | 1.0 | 3.0 | 0.00 | 0.04 | 0.00 | 45 | 1033.3 |
| 20260508141218 | 47 | 26 | 1.0 | 3.0 | 0.00 | 0.04 | 0.00 | 45 | 1033.3 |
| 20260508140721 | 47 | 39 | 1.0 | 3.0 | 0.00 | 0.04 | 0.00 | 46 | 1033.4 |
| 20260508140003 | 47 | 344 | 1.0 | 4.0 | 0.00 | 0.04 | 0.00 | 46 | 1033.5 |